Wind_Speed
5 7 9 9 11 12 11 10 13 12 13 13 15 15 12 9 7 6 4 2 2 2 1 4 5 6 6 5 6 8 9 6 8 12 15 14 15 15 14 7 5 9 3 22
2 3 4 6 7 7 8 9 9 9 12 11 12 12 11 11 10 8 7 6 5 6 5 3 4 5 5 6 8 5 5 6 3 6 9 13 18 17 19 19 20 20 4 15
8 7 6 7 7 7 8 9 8 9 6 10 9 10 9 9 9 7 8 7 7 7 7 8 8 9 8 9 10 12 13 17 18 15 12 15 17 18 18 21 16 24 34 47
13 13 12 11 11 11 10 9 8 10 11 12 10 10 10 10 11 10 11 9 10 10 9 12 14 16 16 16 15 16 16 21 19 23 26 25 27 28 31 34 38 32 44 43
19 19 18 17 16 15 15 14 14 14 14 12 11 11 12 11 11 11 11 14 18 17 17 14 19 19 20 21 20 19 20 22 24 30 28 28 27 33 37 41 43 49 51 51
24 23 23 22 21 20 19 18 18 18 19 17 16 17 15 15 14 13 13 19 22 24 23 21 23 25 24 26 27 23 23 25 20 15 23 18 20 32 24 30 35 37 43 30
28 27 25 25 24 23 22 22 21 20 21 21 18 19 20 20 21 21 24 26 28 30 28 28 26 26 28 29 31 29 29 26 21 15 15 6 20 18 18 25 26 27 31 28
30 29 28 26 25 24 23 23 24 25 26 26 25 26 25 26 27 29 30 31 32 30 28 28 24 20 24 26 26 30 30 25 15 8 13 24 33 20 25 18 23 21 24 23
32 32 31 30 29 27 26 25 26 28 30 32 31 31 31 32 32 33 38 35 32 29 27 23 13 11 14 11 5 11 23 28 23 9 9 6 4 13 18 24 26 15 13 9
39 38 37 37 36 35 34 34 34 36 39 40 37 38 38 39 38 38 36 34 31 29 25 23 20 22 21 15 15 13 18 23 31 34 18 19 15 19 22 17 18 14 16 25
50 51 51 49 49 47 48 46 43 42 45 44 42 40 39 40 38 37 33 29 26 25 23 21 20 19 19 18 21 20 20 13 17 18 14 15 18 16 12 13 19 34 43 42
37 37 37 37 37 37 37 36 35 36 36 37 35 33 33 32 27 29 31 32 24 14 14 14 12 16 15 18 20 21 18 22 22 23 23 23 23 24 29 36 45 49 52 50
30 31 31 32 32 31 30 29 27 28 32 37 32 30 27 28 31 34 37 36 34 36 34 37 37 35 25 24 23 25 24 24 30 34 40 39 38 39 40 49 50 41 34 34
27 28 27 27 27 26 26 25 25 25 27 34 37 32 30 30 30 27 23 25 26 29 24 29 36 36 26 27 29 30 30 34 40 47 43 42 39 40 40 42 41 41 41 45
24 26 27 27 28 28 28 27 26 25 24 28 28 19 21 30 36 33 33 35 35 36 40 39 40 38 35 40 41 37 29 30 32 39 34 33 37 38 35 36 39 47 48 47
27 27 27 27 26 26 27 28 29 27 26 30 37 31 26 26 29 31 32 34 33 29 26 29 34 37 30 22 23 33 30 24 29 34 37 38 45 51 51 50 50 48 44 44
27 26 27 27 27 25 23 24 22 24 23 21 21 22 13 7 11 17 20 18 14 13 16 23 26 28 28 35 33 40 45 36 31 37 34 34 31 27 29 32 32 30 29 28
22 22 23 22 21 21 20 21 22 21 21 19 14 17 19 20 20 20 19 20 21 24 23 24 22 21 19 22 22 23 29 28 25 22 23 19 18 18 20 21 24 23 22 24
18 18 19 19 18 17 16 16 17 18 17 9 13 16 14 9 8 12 15 17 21 22 25 23 20 23 18 25 27 26 20 14 14 20 20 18 21 22 19 18 18 20 22 23
19 17 16 12 8 9 15 15 16 16 16 20 23 22 22 23 25 26 16 9 8 11 12 12 14 20 22 22 19 7 14 15 16 16 16 18 18 21 23 25 26 28 29 30
19 19 16 14 14 13 11 6 5 5 4 7 11 13 12 6 6 7 5 4 5 7 10 11 7 16 16 14 19 19 11 10 14 18 22 24 26 28 32 36 36 36 35 36
12 13 14 13 9 5 4 3 4 6 3 4 5 2 2 3 1 2 3 5 5 6 5 5 5 10 15 14 16 12 13 16 22 25 28 31 34 37 39 39 39 39 40 39
9 11 8 4 4 4 4 3 4 2 2 5 6 8 7 5 5 5 5 5 6 8 6 7 8 9 12 15 15 15 18 24 28 31 33 36 38 38 39 41 41 41 41 41
9 6 5 4 2 2 3 8 4 4 7 11 13 12 9 8 6 4 5 7 8 6 10 12 14 13 11 15 21 30 35 35 35 36 38 40 41 42 42 42 41 41 43 44
6 5 3 4 4 3 2 7 8 9 12 14 15 15 11 6 6 5 5 5 5 3 4 9 18 28 32 32 34 35 37 38 40 41 42 43 44 44 44 42 39 38 37 37
5 6 5 4 3 6 10 10 10 12 13 14 13 10 5 5 3 3 5 6 10 17 24 29 33 36 37 37 36 38 40 40 38 37 40 42 44 45 47 48 47 44 43 44
6 8 10 9 10 13 14 14 14 14 13 11 9 4 2 5 5 7 11 18 22 27 31 33 35 37 37 39 39 35 39 41 41 44 46 46 43 43 44 45 44 41 39 39
Wind_Direction
32 33 38 42 44 47 49 52 59 54 58 61 60 55 52 54 43 33 34 46 114 175 240 279 254 255 265 284 258 256 251 258 260 269 276 264 254 241 227 218 221 230 255 273
325 344 354 2 9 13 20 20 28 24 28 36 41 42 39 36 29 21 14 2 353 333 314 288 265 267 269 270 275 285 264 243 286 279 270 258 251 252 247 236 249 248 212 264
286 290 296 304 310 317 328 339 342 351 352 5 2 6 11 13 12 15 2 347 337 325 312 294 279 281 278 265 258 248 250 248 242 237 263 274 264 268 265 239 236 248 253 281
269 277 283 284 289 296 299 307 306 311 314 327 329 331 333 337 342 348 348 345 334 317 297 292 278 276 279 275 275 265 256 264 267 265 263 270 275 276 272 254 269 244 281 278
274 276 279 283 287 290 295 300 298 296 295 302 300 302 306 313 316 323 320 332 326 311 300 292 280 279 277 277 271 269 266 268 277 279 282 286 273 274 267 264 268 270 276 281
275 276 281 283 286 289 289 290 290 290 292 293 294 295 296 296 292 297 297 311 308 299 296 282 279 275 273 272 277 272 265 265 270 277 289 292 276 285 280 277 274 274 270 296
276 279 281 283 285 286 288 287 287 286 286 287 285 282 284 283 279 283 294 301 297 300 293 287 280 277 274 269 267 270 266 270 262 272 274 249 274 269 274 281 285 283 290 304
279 280 280 282 283 283 284 283 282 281 279 279 281 282 285 282 280 280 285 296 297 292 287 286 288 286 284 281 268 253 252 249 256 257 238 277 282 282 274 281 278 291 299 309
277 279 280 279 279 280 281 280 278 276 277 277 279 282 283 282 280 283 288 289 287 283 284 276 255 247 276 264 252 239 240 238 229 241 250 241 292 308 293 295 302 281 270 272
276 278 278 279 279 279 278 279 277 276 274 273 272 271 274 276 276 277 282 282 279 277 271 262 254 258 254 253 259 254 235 239 232 238 254 271 275 288 289 271 279 269 284 296
275 275 275 275 276 275 276 275 273 271 269 270 271 270 270 272 272 273 272 273 273 271 258 257 261 262 255 252 252 265 264 252 237 237 237 273 274 283 282 284 270 294 304 306
271 271 271 270 269 271 271 272 270 272 273 272 275 270 270 269 267 265 265 262 258 250 243 240 255 250 252 265 263 250 265 260 260 254 258 268 282 290 296 291 289 292 290 293
273 273 273 274 273 273 273 274 276 276 278 279 276 274 271 262 261 261 261 265 266 263 262 262 260 261 260 258 260 264 262 262 268 269 270 268 272 277 280 283 288 288 284 285
274 276 277 276 277 278 278 276 273 271 274 280 284 281 278 264 259 258 270 269 257 259 263 274 268 267 272 267 271 277 273 276 277 280 286 287 286 284 281 276 275 278 282 291
283 282 282 282 281 279 279 277 277 273 267 265 266 263 270 280 283 281 279 276 263 259 271 270 265 266 269 277 288 286 282 274 273 276 279 284 284 286 288 291 287 292 301 298
287 287 289 289 287 284 281 279 273 271 269 271 275 283 280 271 273 271 268 265 261 256 256 257 263 265 273 270 266 279 265 271 273 271 275 278 292 302 303 304 305 301 300 299
282 286 286 285 287 288 284 280 279 275 275 272 282 290 291 268 251 258 261 250 260 260 257 261 265 269 260 268 262 275 279 280 281 282 295 302 304 307 307 308 309 315 316 315
283 284 285 287 288 287 284 277 274 270 266 264 265 266 274 275 265 261 262 264 270 274 280 272 270 275 268 261 257 269 288 297 306 317 322 334 336 336 338 332 329 337 338 337
295 293 290 290 289 288 283 277 270 267 257 242 249 263 271 268 270 256 262 267 275 276 275 274 279 276 252 260 262 263 273 309 340 337 335 344 349 347 342 335 331 327 325 322
288 299 305 313 295 288 286 281 275 265 250 236 253 256 261 272 278 287 291 271 256 259 266 275 264 263 260 269 262 304 345 335 326 327 324 320 320 320 318 315 313 314 315 314
282 283 294 298 297 289 279 250 227 224 251 242 255 258 259 267 254 242 247 252 274 263 264 257 257 272 289 300 271 317 307 322 323 313 309 309 311 314 319 319 314 312 309 305
288 294 299 309 295 236 221 233 217 218 245 200 181 187 214 257 345 251 261 273 233 246 274 266 271 298 289 284 288 286 297 307 308 309 310 309 311 313 311 308 306 304 302 300
282 298 311 290 265 210 195 230 239 277 13 358 355 359 358 0 342 318 275 257 242 270 263 270 271 251 253 260 278 292 303 307 308 308 306 304 304 304 303 302 301 301 301 302
279 286 255 258 237 193 230 246 263 294 333 339 339 337 325 316 290 254 262 251 269 242 246 252 244 266 289 305 299 303 310 312 310 306 303 302 300 300 300 300 301 299 297 298
275 254 249 243 243 246 333 348 329 321 327 329 331 328 323 294 239 238 249 247 241 260 274 297 307 315 316 313 310 308 306 307 307 307 307 305 302 300 300 301 302 302 303 302
266 245 246 262 281 231 293 301 305 310 319 322 319 316 284 288 251 244 261 267 276 294 303 302 302 300 305 307 307 310 310 310 310 308 306 305 305 305 305 303 302 301 297 295
257 281 305 291 273 272 281 289 301 306 299 301 312 289 269 274 257 262 271 290 302 297 292 294 302 306 309 310 311 310 309 308 308 309 309 308 308 307 306 306 305 301 297 296
Height
3129 3129 3127 3126 3125 3124 3123 3122 3121 3119 3118 3118 3114 3113 3113 3113 3113 3113 3113 3112 3111 3112 3112 3113 3113 3113 3113 3113 3114 3113 3114 3114 3113 3112 3111 3111 3111 3111 3112 3113 3111 3109 3107 3091
3129 3128 3127 3127 3126 3124 3123 3122 3121 3121 3119 3118 3116 3115 3114 3114 3114 3113 3112 3112 3113 3113 3113 3112 3110 3110 3110 3110 3111 3112 3112 3110 3111 3109 3109 3106 3105 3105 3107 3108 3107 3102 3105 3085
3128 3127 3126 3126 3125 3124 3123 3122 3121 3120 3119 3118 3117 3117 3116 3115 3114 3113 3113 3112 3111 3111 3111 3111 3110 3109 3109 3108 3108 3108 3108 3106 3104 3102 3101 3101 3100 3101 3101 3101 3099 3093 3087 3077
3124 3124 3124 3123 3123 3122 3122 3120 3119 3118 3118 3117 3116 3116 3115 3114 3113 3113 3111 3111 3110 3110 3108 3108 3106 3105 3105 3105 3105 3104 3104 3100 3099 3098 3097 3097 3095 3094 3091 3087 3084 3081 3071 3071
3120 3120 3120 3120 3120 3119 3119 3119 3118 3117 3116 3115 3114 3113 3113 3112 3111 3111 3110 3109 3108 3107 3106 3106 3103 3101 3101 3100 3099 3098 3098 3095 3092 3089 3090 3089 3085 3086 3082 3078 3077 3070 3066 3064
3115 3115 3115 3115 3115 3115 3114 3115 3114 3113 3113 3112 3112 3111 3110 3109 3108 3107 3106 3106 3104 3102 3102 3101 3099 3097 3096 3094 3093 3094 3093 3090 3088 3082 3084 3082 3076 3071 3069 3067 3065 3065 3061 3058
3108 3109 3109 3109 3109 3109 3110 3109 3108 3108 3107 3107 3108 3107 3106 3106 3104 3103 3102 3101 3099 3099 3096 3094 3092 3091 3089 3088 3085 3086 3086 3087 3087 3079 3080 3075 3064 3064 3063 3060 3059 3059 3055 3054
3102 3102 3102 3103 3103 3103 3103 3103 3103 3101 3099 3100 3101 3100 3100 3099 3098 3096 3094 3094 3093 3090 3089 3087 3083 3082 3080 3079 3078 3078 3079 3080 3080 3079 3075 3061 3060 3060 3059 3056 3055 3056 3051 3048
3093 3094 3094 3095 3095 3096 3096 3096 3096 3095 3092 3092 3093 3093 3092 3090 3090 3088 3085 3087 3085 3084 3082 3080 3077 3076 3075 3072 3070 3071 3072 3074 3076 3074 3070 3060 3054 3055 3055 3052 3049 3050 3046 3044
3084 3085 3085 3085 3086 3086 3087 3088 3088 3087 3083 3082 3084 3083 3083 3081 3081 3079 3076 3076 3078 3077 3075 3073 3071 3068 3071 3068 3066 3066 3065 3065 3065 3066 3063 3050 3051 3051 3051 3050 3049 3042 3041 3038
3071 3072 3073 3073 3073 3074 3074 3075 3075 3075 3070 3071 3070 3073 3072 3070 3071 3070 3069 3069 3068 3069 3068 3067 3065 3061 3061 3060 3061 3060 3060 3061 3059 3058 3057 3048 3046 3047 3049 3045 3039 3036 3033 3030
3060 3060 3060 3060 3060 3060 3061 3061 3061 3060 3059 3059 3060 3060 3061 3060 3061 3060 3059 3061 3062 3061 3061 3060 3058 3057 3055 3054 3053 3056 3056 3053 3053 3051 3042 3041 3041 3040 3039 3035 3031 3025 3022 3019
3052 3051 3051 3051 3051 3051 3052 3052 3051 3051 3048 3046 3048 3049 3050 3050 3051 3050 3049 3052 3055 3053 3053 3050 3050 3047 3048 3046 3045 3045 3046 3046 3040 3038 3033 3034 3034 3034 3030 3023 3018 3015 3013 3010
3044 3044 3044 3043 3043 3043 3043 3044 3045 3045 3043 3039 3037 3040 3040 3042 3042 3044 3043 3044 3042 3043 3043 3041 3039 3039 3038 3036 3037 3036 3036 3033 3030 3023 3026 3022 3022 3017 3014 3010 3009 3007 3005 3001
3038 3037 3037 3037 3037 3036 3036 3036 3036 3037 3040 3033 3031 3034 3034 3034 3035 3035 3034 3033 3033 3033 3032 3030 3029 3029 3031 3028 3027 3023 3022 3019 3020 3015 3014 3013 3007 3004 3003 3001 2998 2994 2992 2988
3031 3030 3029 3029 3029 3029 3029 3027 3029 3029 3028 3027 3021 3019 3023 3025 3025 3024 3025 3024 3022 3022 3021 3021 3020 3021 3025 3021 3017 3014 3012 3011 3011 3010 3006 3002 2998 2995 2991 2988 2985 2983 2979 2974
3023 3022 3022 3021 3021 3021 3022 3022 3021 3020 3021 3020 3016 3013 3012 3013 3015 3014 3014 3014 3014 3014 3013 3011 3012 3014 3017 3012 3009 3004 3003 3003 3003 3001 2998 2996 2992 2990 2986 2982 2978 2975 2971 2966
3016 3015 3014 3014 3013 3013 3014 3013 3012 3013 3013 3015 3012 3008 3009 3009 3009 3010 3010 3010 3008 3008 3007 3004 3005 3006 3007 3003 2998 2997 2996 2995 2994 2992 2990 2989 2987 2984 2981 2978 2974 2971 2968 2964
3010 3009 3008 3007 3007 3007 3006 3006 3005 3006 3010 3007 3005 3005 3005 3003 3003 3003 3004 3004 3003 3003 2999 3000 3000 2997 2996 2996 2996 2993 2991 2990 2990 2988 2985 2982 2980 2977 2976 2974 2971 2968 2965 2961
3005 3005 3004 3002 3002 3002 3003 3002 3001 3000 3000 3001 2999 3001 3001 3001 3000 2999 3001 2998 2999 2997 2996 2995 2993 2991 2990 2990 2990 2989 2989 2988 2987 2984 2982 2979 2977 2974 2972 2969 2966 2962 2958 2954
3001 2999 3000 3001 2998 2998 2998 2998 2998 2998 2997 2996 2996 2995 2993 2994 2996 2996 2996 2994 2994 2993 2993 2992 2991 2989 2988 2987 2985 2984 2984 2983 2981 2978 2976 2973 2970 2967 2964 2961 2958 2954 2949 2945
2996 2997 2996 2995 2994 2994 2997 2996 2996 2994 2994 2994 2992 2992 2992 2993 2993 2994 2995 2992 2991 2989 2988 2989 2987 2986 2984 2983 2981 2980 2979 2977 2975 2973 2969 2967 2963 2960 2956 2951 2947 2943 2938 2934
2994 2994 2993 2991 2995 2993 2991 2995 2994 2993 2991 2991 2993 2993 2992 2991 2992 2992 2992 2990 2988 2987 2985 2985 2984 2981 2979 2978 2978 2977 2975 2973 2970 2967 2963 2958 2954 2951 2947 2941 2937 2932 2927 2923
2992 2993 2992 2992 2991 2991 2992 2993 2992 2991 2990 2991 2992 2991 2991 2990 2990 2989 2988 2987 2986 2983 2980 2979 2978 2977 2977 2976 2974 2971 2967 2964 2960 2956 2952 2948 2944 2939 2935 2931 2926 2921 2916 2911
2991 2991 2989 2989 2991 2991 2990 2990 2989 2989 2990 2989 2987 2986 2988 2987 2987 2985 2983 2983 2980 2979 2977 2975 2974 2973 2972 2969 2966 2962 2958 2954 2949 2945 2940 2936 2931 2926 2921 2918 2913 2909 2904 2899
2989 2988 2988 2988 2989 2989 2988 2988 2987 2988 2988 2987 2986 2985 2985 2984 2983 2982 2981 2981 2979 2978 2974 2971 2969 2967 2965 2961 2957 2953 2948 2943 2938 2934 2929 2924 2920 2914 2908 2903 2899 2896 2891 2886
2986 2986 2986 2986 2985 2986 2986 2985 2984 2985 2986 2985 2984 2984 2983 2982 2981 2980 2979 2977 2976 2972 2968 2966 2963 2959 2955 2951 2947 2942 2938 2933 2928 2922 2918 2912 2907 2901 2895 2889 2885 2881 2877 2873